Theta_e
268 267 267 267 266 266 265 265 265 265 265 264 264 264 264 263 263 263 264 263 263 263 263 263 263 264 264 263 263 263 263 263 264 264 264 264 264 264 264 264 264 264 265 265 266 265 265 265 265 266 267 267 267 268 268 268 268 269 269 270 269 270 270 269 268 268 271 274 274 275 276 276 275 276 276 276 277 278 280 279 280 279 279 279 280
267 266 266 266 265 265 265 265 264 264 263 263 262 263 263 262 262 262 262 262 263 262 263 263 263 263 263 262 263 263 262 262 263 263 262 262 262 263 263 263 263 263 264 263 264 265 265 264 264 265 267 266 266 266 267 267 267 267 267 268 268 268 270 268 267 267 266 270 271 273 273 274 273 276 275 275 275 277 277 277 278 278 278 278 278
267 266 265 265 264 264 264 264 263 263 262 262 261 262 262 262 262 261 261 261 262 262 262 262 262 262 262 261 262 262 262 262 262 261 261 261 261 261 262 262 262 262 262 263 263 264 263 263 264 265 265 265 265 266 266 266 266 266 265 267 267 267 268 268 267 265 265 266 270 270 271 272 272 272 274 274 274 275 274 275 276 276 277 278 277
266 265 264 264 263 263 263 262 262 262 261 261 260 261 261 261 261 260 261 260 260 261 261 261 261 261 260 261 261 261 260 260 260 260 260 260 260 260 261 262 262 262 262 262 262 263 262 262 263 264 264 264 264 265 265 265 265 265 265 265 266 266 267 267 266 265 264 263 265 267 268 269 270 272 273 273 273 272 273 274 275 275 276 276 276
265 264 263 263 262 262 261 261 261 260 260 260 259 260 259 260 259 259 259 259 260 260 260 261 260 260 259 259 259 259 259 259 259 259 259 260 260 260 261 261 261 262 262 262 263 263 262 262 263 263 263 263 263 264 264 264 264 264 264 265 265 265 265 265 265 265 263 262 263 266 267 268 269 269 271 270 271 272 272 272 273 274 274 276 276
264 263 262 261 261 260 260 260 259 259 259 258 258 258 258 258 258 258 259 257 258 258 258 259 259 258 259 259 259 259 259 258 258 258 258 259 259 260 259 260 260 261 262 262 263 263 263 263 263 263 263 262 262 263 263 263 263 263 263 263 263 264 263 263 264 263 263 263 263 263 265 266 266 268 269 270 269 268 269 270 272 272 272 273 274
262 261 261 260 259 259 259 259 258 258 258 257 257 257 257 257 257 256 257 257 257 257 257 258 257 258 258 258 257 257 257 257 257 257 257 257 257 257 258 259 260 261 262 262 263 262 262 262 261 261 261 261 260 260 261 261 261 262 262 262 262 262 262 262 262 262 262 262 262 263 263 265 266 265 267 269 269 268 266 267 268 270 271 271 271
261 260 259 259 258 258 258 258 257 257 256 256 256 256 256 256 255 256 256 255 256 256 256 256 257 257 257 256 256 256 255 255 256 255 255 255 256 257 258 260 261 261 262 262 262 262 261 260 260 260 260 260 260 260 261 260 261 261 262 262 262 261 261 262 262 262 262 261 262 262 263 263 264 266 267 267 266 267 268 267 266 267 268 270 271
259 258 258 257 257 257 257 257 256 256 255 255 255 254 254 255 254 255 255 254 254 255 255 255 255 254 255 255 254 254 254 254 254 254 254 255 258 259 260 260 260 259 258 259 260 259 259 259 259 259 260 260 261 261 261 261 260 260 260 261 261 261 261 261 261 261 261 261 261 262 262 262 263 263 263 264 264 264 266 267 266 267 268 268 269
258 258 257 256 256 257 256 256 255 255 254 254 254 253 253 253 253 253 253 253 253 254 253 254 254 253 253 253 253 253 253 253 254 255 258 259 260 260 260 259 257 257 257 257 257 257 258 258 258 259 259 259 259 260 260 260 261 261 260 260 260 260 260 260 260 260 260 260 260 260 260 260 261 262 262 263 265 266 265 265 264 265 267 266 267
257 256 255 255 256 256 255 254 254 253 253 253 253 252 252 252 252 252 252 252 253 253 253 253 252 252 252 251 251 252 252 252 254 260 262 263 261 260 257 255 256 255 256 255 255 256 256 257 256 257 258 258 258 259 259 259 260 260 260 261 261 260 259 259 259 260 259 259 260 260 259 259 260 262 262 263 264 264 264 265 264 264 264 263 262
255 255 255 255 255 254 254 253 253 252 252 252 252 252 252 251 251 251 251 252 252 252 251 251 251 251 251 250 250 251 251 252 257 260 262 262 261 259 255 254 254 255 255 254 254 255 254 255 255 256 256 257 257 257 258 258 258 259 259 260 260 261 262 260 259 259 259 259 259 259 259 259 260 261 261 261 262 263 263 263 263 263 262 262 262
254 254 254 254 253 253 252 252 251 251 251 251 251 250 250 250 250 250 250 251 251 251 250 251 250 251 250 249 249 250 250 251 257 259 261 261 262 258 254 253 253 253 253 253 253 253 254 254 254 255 255 257 257 256 256 256 257 258 259 259 260 260 260 261 262 261 260 259 258 258 259 259 259 259 261 261 262 260 261 261 261 262 262 262 263
253 253 253 252 252 252 251 251 250 250 250 250 250 249 250 249 250 250 251 250 250 250 250 250 250 249 249 249 249 249 250 251 257 259 260 261 261 259 253 252 252 253 253 253 252 253 253 253 254 254 255 255 256 256 255 255 255 256 256 257 258 259 260 260 260 261 261 260 259 258 259 260 259 260 262 262 261 260 260 260 261 261 261 261 263
252 252 251 251 251 251 250 250 249 250 250 249 249 249 249 249 249 250 250 249 249 249 249 249 248 249 248 249 248 248 249 252 256 258 258 260 258 256 252 252 252 252 252 252 252 252 253 253 254 253 254 254 255 255 254 254 255 255 256 256 257 258 259 259 259 259 260 260 260 260 260 261 261 261 262 262 261 261 262 261 261 261 260 261 262
251 250 250 251 250 250 249 249 249 249 249 248 248 248 248 248 248 249 249 249 249 249 249 249 248 248 248 248 248 248 249 253 256 257 258 254 252 253 252 251 251 251 251 252 252 253 253 254 253 253 253 253 254 255 255 255 255 254 254 255 255 257 257 260 263 264 262 262 261 261 262 262 263 262 262 261 261 261 261 262 262 260 260 259 259
250 249 249 249 249 249 249 248 247 247 247 247 247 247 247 247 248 249 247 248 248 248 248 248 248 248 248 248 247 248 248 250 254 256 257 256 255 251 251 251 251 251 251 252 253 253 253 253 253 252 252 252 254 255 256 255 253 253 253 254 255 256 257 259 262 264 264 264 264 263 262 261 262 262 262 262 261 260 259 259 257 260 256 256 257
249 249 248 249 248 248 248 247 247 247 247 246 246 247 247 247 248 248 247 247 247 247 248 248 248 248 248 247 247 247 247 249 250 254 256 252 253 250 250 250 250 250 251 251 252 253 253 253 253 252 252 252 254 254 253 253 252 253 253 253 253 254 255 258 257 257 261 261 261 261 261 260 259 259 260 261 260 258 256 254 256 257 254 257 256
248 247 248 248 247 248 247 247 247 246 246 246 246 246 246 247 247 248 247 247 247 248 247 247 247 248 248 248 248 247 247 248 249 254 255 252 252 250 250 250 249 249 250 251 252 252 252 252 252 252 252 252 253 249 251 253 252 253 253 253 253 254 256 257 255 256 256 255 256 255 255 256 255 255 255 256 257 257 255 254 256 255 254 255 255
247 247 248 247 247 247 247 246 246 246 245 245 246 246 247 247 247 247 246 247 247 247 247 247 246 247 248 248 248 247 247 247 248 253 252 253 252 250 250 249 248 249 250 250 250 250 251 251 252 252 252 253 254 254 249 253 252 252 253 253 253 254 257 255 256 256 254 254 254 254 254 255 255 255 255 255 255 256 255 255 255 254 254 253 254
247 247 248 247 247 247 247 246 245 245 246 245 246 246 247 246 246 246 246 246 246 246 245 246 246 246 247 247 248 247 247 247 247 249 254 251 252 250 249 248 249 249 249 249 249 249 250 250 251 252 251 252 253 252 249 250 253 254 254 254 255 256 256 254 254 255 254 254 255 255 256 256 256 256 256 255 255 255 254 254 254 254 253 252 252
247 247 247 246 246 246 246 245 245 245 245 246 245 245 246 246 246 246 246 246 245 244 245 245 246 246 246 247 247 247 248 247 247 248 249 251 249 251 249 248 250 249 248 249 249 249 249 250 250 251 251 252 253 251 247 249 254 254 255 255 256 256 254 254 254 255 255 255 255 254 255 255 255 255 255 255 255 254 253 253 253 253 253 253 252
247 246 246 245 245 245 245 245 245 245 245 245 245 245 246 246 245 245 245 245 244 244 245 245 245 245 246 247 248 247 247 248 248 247 248 249 253 250 250 249 251 250 248 247 248 249 250 250 250 251 252 252 249 247 248 254 254 254 253 254 254 254 254 253 253 253 253 253 253 253 253 253 253 253 253 253 253 253 252 252 252 251 251 252 253
246 245 245 245 245 245 245 245 245 245 245 245 245 245 245 245 245 246 245 245 245 245 245 245 245 245 245 246 247 248 248 248 248 248 247 248 249 251 249 249 250 249 249 248 249 249 249 249 250 251 252 251 246 247 252 254 253 254 253 253 252 253 252 252 252 252 251 251 251 251 251 252 252 252 252 252 251 251 250 250 251 251 250 251 251
245 244 244 244 244 245 244 245 245 245 245 245 244 245 244 245 244 245 245 245 245 245 245 245 245 245 245 245 246 247 248 248 247 248 248 247 248 249 249 250 250 249 248 249 249 249 250 251 251 251 251 251 251 252 252 252 252 252 251 251 251 251 251 251 251 251 250 250 250 250 250 251 251 251 251 250 250 250 250 251 252 252 251 251 251
244 244 244 245 244 244 244 245 245 245 245 245 245 245 245 244 244 245 245 245 245 245 245 245 245 245 245 246 246 246 247 247 247 247 247 248 248 249 249 249 249 249 249 249 249 250 250 250 250 250 250 250 249 250 250 250 251 251 250 250 250 250 250 250 250 249 249 249 249 249 250 250 250 251 250 250 250 250 251 250 250 251 251 251 251
244 244 244 244 245 244 244 245 245 245 245 245 246 246 245 245 245 244 245 245 245 245 245 245 245 245 245 245 246 246 246 247 247 247 248 248 248 248 249 249 249 249 249 249 249 249 249 249 249 249 249 249 249 250 250 251 250 250 250 250 250 250 249 249 249 248 248 248 248 249 249 250 250 250 250 250 250 250 251 250 249 250 250 251 250
244 244 243 244 244 245 244 244 244 245 245 245 245 245 245 245 245 244 245 244 244 244 244 245 245 245 245 245 246 246 246 246 247 246 247 247 247 248 248 248 248 248 248 248 249 249 248 249 248 248 248 248 249 249 249 249 249 249 249 249 249 249 249 249 249 249 249 249 249 249 249 249 249 249 249 249 249 249 250 249 249 249 249 249 248
243 243 244 244 244 244 245 245 245 244 244 245 245 245 244 244 244 245 246 246 246 245 244 245 245 246 246 246 245 245 245 245 246 247 247 248 247 247 247 247 248 248 248 249 248 248 248 247 247 247 247 247 247 247 247 248 248 248 248 248 249 249 249 249 248 248 248 248 247 248 248 248 248 248 249 249 249 249 250 249 249 248 249 249 248
243 244 244 244 244 244 245 245 245 245 245 245 244 245 245 245 245 245 245 246 246 246 246 245 246 246 246 246 246 245 244 246 247 248 248 248 248 248 248 248 248 248 249 249 248 246 246 246 246 246 246 246 246 246 246 247 246 246 247 247 247 247 248 248 248 248 248 247 247 247 247 247 247 247 247 247 248 248 249 248 248 248 247 247 247
244 244 244 244 244 243 244 245 245 245 245 244 244 244 244 246 246 246 246 246 246 246 247 247 248 247 247 246 246 247 247 247 247 247 248 248 248 247 247 248 248 248 248 246 246 245 245 245 245 245 245 245 245 245 245 245 245 245 246 246 247 247 247 247 247 247 246 246 246 246 246 246 246 246 246 247 247 247 248 248 248 248 247 247 247
243 244 244 244 243 243 244 244 244 244 244 245 244 244 244 244 245 246 246 246 246 246 247 247 247 247 247 246 245 246 246 246 246 247 247 247 247 247 248 248 248 248 247 246 244 245 245 244 244 244 244 244 244 245 245 244 244 244 245 245 245 246 246 246 247 246 245 245 245 245 245 246 246 246 246 246 246 246 246 247 247 247 247 247 247
242 243 243 243 244 243 244 244 244 244 244 244 243 244 244 244 243 244 245 246 246 246 246 247 247 246 246 246 246 246 246 246 246 247 246 246 246 247 248 248 247 247 246 245 244 244 244 244 244 244 244 244 244 244 244 244 244 244 244 244 244 245 245 245 245 244 244 245 245 245 245 245 245 245 245 245 245 245 246 246 246 246 246 246 246
240 242 243 243 243 244 244 244 244 244 244 244 244 243 244 243 243 243 243 244 245 246 246 246 245 245 245 245 245 245 246 246 246 245 245 246 247 247 246 246 247 246 244 243 243 243 243 243 243 243 244 244 244 244 244 244 244 244 244 244 244 245 244 245 245 245 245 245 245 245 245 245 245 244 244 245 245 245 245 245 246 245 245 246 245
241 241 240 241 244 244 244 244 244 244 244 244 244 243 243 243 243 243 243 242 242 243 244 245 246 245 244 244 245 245 245 245 245 245 245 247 247 246 246 245 244 245 245 244 244 244 243 243 243 243 243 243 243 243 243 243 243 243 243 243 244 244 244 244 244 244 244 244 244 244 244 244 244 244 244 244 244 244 245 245 245 245 245 245 245
241 243 244 242 243 244 244 244 244 244 243 244 244 244 243 243 243 243 243 243 243 243 243 245 245 245 244 245 245 245 245 245 245 245 246 246 246 245 243 243 243 243 243 244 244 244 244 243 243 244 244 244 244 244 244 243 243 244 244 243 243 243 243 244 244 244 244 244 244 244 244 244 244 244 244 244 243 243 244 244 244 245 245 245 245
243 244 244 244 244 244 244 244 244 244 243 243 244 244 243 243 243 243 243 243 243 243 243 244 244 244 245 245 245 245 245 245 245 245 246 246 246 245 244 244 243 243 243 244 244 244 243 244 244 244 244 244 244 244 244 244 244 243 243 244 243 243 243 243 243 243 243 243 244 244 243 243 243 243 243 243 243 244 244 244 244 244 245 245 245
241 243 243 243 243 243 244 244 244 243 243 244 244 244 243 243 243 243 243 243 243 242 243 243 243 244 244 245 246 244 244 244 245 246 247 246 245 245 244 244 243 243 243 244 244 244 244 244 244 244 244 244 244 244 244 244 244 244 244 244 244 244 244 243 243 243 243 243 243 243 244 243 244 244 243 243 243 243 243 244 244 244 244 244 245
243 241 240 241 242 243 244 244 244 244 244 244 244 243 243 243 243 243 243 243 243 243 243 243 244 244 245 245 244 244 244 244 244 244 244 245 245 245 244 244 244 244 244 244 244 244 244 244 245 245 245 245 245 245 245 245 245 244 244 244 244 244 244 244 244 244 244 244 244 244 244 244 244 244 244 243 243 243 243 243 243 244 243 244 245
244 244 243 241 243 243 244 243 244 243 243 243 243 243 243 243 243 243 243 243 243 242 243 243 243 244 245 244 243 243 243 243 243 244 244 244 244 244 244 244 244 244 244 244 244 245 244 245 245 245 245 245 245 245 245 245 245 245 245 245 244 244 244 245 244 244 244 245 244 244 244 244 244 244 244 244 244 244 243 243 244 244 244 244 245
244 244 242 242 243 243 243 243 244 244 244 243 243 243 243 243 243 243 243 242 242 242 242 243 243 244 244 243 243 243 242 243 243 244 244 243 243 244 244 244 244 244 245 245 245 245 245 245 245 246 246 246 246 246 246 246 246 245 245 245 245 245 245 245 245 245 245 245 245 245 245 245 245 244 244 244 245 245 244 244 244 245 245 245 245
244 244 244 244 243 243 243 243 244 243 243 242 243 243 243 243 243 243 242 242 242 242 242 243 243 244 244 244 243 243 243 243 243 243 243 244 244 244 244 245 245 245 245 245 245 245 245 245 246 246 246 246 246 246 246 246 246 246 246 246 245 245 245 245 246 245 245 245 245 245 245 245 245 245 245 245 245 245 245 245 245 245 245 245 245
242 243 244 244 244 244 244 244 244 243 243 243 243 242 243 242 243 243 243 242 242 242 242 242 243 244 244 243 243 242 243 244 243 243 243 244 244 244 244 245 246 246 246 246 246 246 246 246 246 246 247 247 247 246 246 246 247 246 246 246 246 246 245 246 246 246 246 246 246 246 245 245 245 246 246 245 245 245 245 245 245 245 245 245 245
243 243 243 243 244 244 243 243 243 243 243 243 242 242 242 242 243 243 243 242 242 243 243 243 243 243 243 244 243 243 244 244 244 244 244 244 244 244 245 246 246 246 246 246 247 247 247 247 247 247 247 247 248 247 247 248 248 247 247 247 246 246 246 246 246 246 246 246 246 246 246 246 246 246 246 246 246 245 245 245 245 245 245 245 245
244 244 244 244 244 244 244 244 243 243 243 242 243 243 243 243 243 243 243 243 243 243 243 243 243 243 243 243 244 243 243 244 243 243 244 244 244 245 245 246 246 246 246 246 247 247 247 247 247 247 247 247 248 248 248 248 248 248 248 247 247 247 247 247 247 248 248 247 246 246 246 246 246 246 246 246 246 246 245 245 245 245 245 245 245
244 244 244 244 243 243 243 244 243 244 243 243 243 243 244 244 244 243 243 243 243 243 243 243 243 243 243 243 244 243 244 244 244 244 244 244 245 245 245 246 246 246 246 246 247 247 247 247 247 247 247 247 247 248 248 248 249 249 249 249 248 248 248 249 249 248 248 247 247 247 247 247 246 246 246 246 246 246 246 246 246 246 245 245 245
244 244 244 243 243 243 243 243 243 243 243 243 243 243 243 244 244 243 243 242 242 242 242 243 243 243 244 244 243 243 243 244 244 244 244 244 244 245 245 245 246 246 246 246 247 247 247 247 247 247 247 247 247 247 248 249 249 249 249 250 249 249 249 249 249 249 249 249 248 248 247 247 247 247 247 246 246 246 246 246 246 245 245 245 245
244 244 244 244 244 243 244 244 243 242 243 243 243 243 243 243 243 243 243 243 243 243 243 243 243 244 243 244 244 244 244 244 244 244 244 245 245 245 245 245 245 246 246 246 246 247 247 247 247 247 247 247 247 247 248 248 249 249 249 250 250 250 249 249 249 249 249 249 249 248 248 247 247 247 247 247 246 246 246 246 246 246 246 246 246
244 244 244 244 244 244 244 244 243 244 244 244 243 243 243 243 243 243 243 243 243 243 243 243 243 244 244 244 244 244 244 244 244 244 245 245 245 245 245 245 245 245 245 246 246 246 246 247 247 247 247 247 248 248 248 248 248 249 249 249 249 249 249 249 249 249 249 249 249 249 248 248 248 247 247 247 247 247 246 246 246 246 246 246 246
245 244 244 244 244 244 244 244 244 244 243 243 243 243 243 243 243 243 243 243 243 243 244 244 243 244 244 244 243 244 244 244 244 244 244 245 245 245 245 245 245 245 245 245 246 246 246 247 246 247 247 247 247 248 248 248 249 249 249 249 249 249 249 249 249 249 249 249 249 249 248 248 248 248 248 247 247 247 246 246 246 246 246 246 245
244 244 244 244 244 244 244 244 244 244 244 243 243 243 243 243 244 244 244 243 243 243 243 244 244 244 243 244 244 244 244 244 244 244 244 245 245 245 245 245 245 245 245 245 245 246 246 246 247 247 247 247 247 248 248 249 249 249 249 249 249 249 249 249 249 249 249 249 249 249 248 248 248 247 247 247 247 247 246 246 246 246 246 246 246
Wind_Speed
9 8 8 9 10 10 10 10 10 9 10 10 9 9 8 8 9 8 7 8 9 8 9 9 9 9 8 9 9 8 9 9 9 8 8 9 8 9 9 9 10 9 9 9 9 9 8 9 9 9 10 9 8 8 7 9 8 8 8 8 8 8 9 10 12 15 12 9 10 11 10 11 11 11 11 10 10 10 10 8 8 8 8 7 9
8 8 8 8 9 9 9 9 9 9 9 10 9 8 8 8 8 9 8 8 9 8 9 8 8 9 7 9 8 8 9 9 8 8 9 10 9 8 8 10 10 10 9 9 9 8 9 10 10 10 10 9 9 8 8 9 9 9 8 8 8 9 8 10 11 12 16 11 10 10 11 10 11 11 10 10 10 10 11 11 10 9 8 8 8
7 7 7 8 9 9 9 9 9 9 9 9 10 9 8 8 8 9 8 8 8 7 8 8 8 8 8 8 8 8 9 8 8 9 9 10 10 10 10 10 10 11 11 11 11 10 10 10 10 10 8 9 9 9 9 9 9 9 9 9 9 9 9 10 11 13 14 14 11 11 10 9 9 11 12 10 11 11 11 11 11 10 9 9 9
6 7 8 8 9 9 9 8 9 9 9 8 10 9 8 8 8 9 8 8 8 8 9 9 8 8 8 9 8 9 9 9 9 9 10 10 10 10 10 11 11 11 11 11 11 11 11 11 10 10 10 10 10 9 9 9 9 9 10 9 10 9 8 8 9 10 11 14 11 11 10 11 10 11 11 11 12 12 11 11 11 12 12 12 11
6 7 7 8 8 8 9 9 9 9 9 8 10 9 9 8 8 9 8 9 9 9 9 8 8 9 8 9 9 9 9 10 10 10 9 9 10 10 11 12 12 13 13 12 12 11 11 10 11 11 10 11 10 10 10 12 11 11 10 8 8 9 9 9 10 10 12 14 14 11 11 12 12 12 12 12 11 10 11 10 10 11 11 12 11
7 7 7 8 8 9 9 9 10 10 9 10 10 9 9 9 9 8 9 9 8 8 8 8 8 8 9 9 9 9 9 9 10 10 10 10 10 11 12 12 12 12 12 12 11 10 10 12 12 11 10 10 10 10 10 10 8 7 8 9 10 10 11 11 11 11 12 13 14 14 12 13 13 11 11 12 12 11 10 11 11 11 10 10 10
7 7 8 8 7 8 8 8 8 8 9 9 8 9 9 9 9 9 8 8 8 8 8 9 8 8 9 9 9 9 9 9 9 10 10 11 11 13 13 13 13 12 10 10 10 10 10 9 9 9 9 10 10 10 11 11 10 10 10 10 10 10 10 11 11 12 13 14 14 14 14 13 13 14 12 11 13 13 13 12 12 10 10 10 10
7 7 7 7 7 8 8 8 8 8 8 9 8 8 9 8 9 8 8 8 8 9 9 9 9 8 9 9 9 9 9 9 10 10 10 11 13 13 12 11 12 12 12 11 10 9 8 10 9 9 9 9 10 11 11 10 10 11 10 10 10 11 11 11 12 12 12 13 13 14 12 14 12 13 12 12 11 11 9 10 11 9 9 9 8
7 7 7 7 7 7 7 7 8 8 8 8 8 9 8 8 8 8 8 8 7 8 9 9 8 8 9 9 9 9 9 9 8 10 13 14 13 12 13 14 10 9 10 10 11 10 11 10 10 10 12 15 16 15 14 14 11 11 11 11 11 11 12 12 12 12 13 13 14 14 14 14 13 12 11 11 11 12 11 11 12 12 10 10 11
7 7 7 7 7 7 7 7 8 8 8 8 8 8 8 8 8 8 9 8 8 8 8 8 8 9 9 9 9 9 8 8 12 22 20 14 14 12 12 9 11 11 10 11 10 10 11 10 10 15 18 18 17 17 17 16 16 13 12 11 11 12 12 12 12 12 12 13 14 14 14 14 13 12 12 12 13 13 13 12 12 12 12 12 11
7 7 7 7 7 7 7 7 7 8 8 7 8 9 9 8 8 8 8 8 9 8 8 8 9 9 9 9 10 9 9 9 21 22 21 22 15 12 8 9 10 9 9 10 10 11 10 11 11 14 15 15 13 18 19 18 18 20 20 20 17 14 13 14 13 13 13 13 13 13 13 14 13 11 11 12 12 12 11 11 11 10 11 11 12
7 7 6 7 7 7 7 7 7 8 8 8 8 8 8 8 8 8 8 9 8 8 8 9 9 9 8 9 9 9 9 15 21 21 21 21 18 10 7 9 8 8 8 9 9 10 11 11 11 10 11 12 13 13 14 17 18 20 21 22 22 22 21 16 14 14 14 14 13 13 13 13 13 11 10 10 11 12 12 12 11 11 11 12 12
7 7 6 7 7 6 7 7 7 7 7 7 7 7 7 8 8 8 7 8 8 8 8 9 9 8 9 9 9 9 9 15 20 21 21 20 21 14 7 9 9 8 8 9 9 9 10 10 11 10 9 16 13 12 12 13 16 20 21 22 21 21 21 23 23 18 15 16 15 16 14 14 15 14 13 13 13 14 13 13 12 13 13 13 11
6 6 6 6 6 6 7 6 7 7 7 7 7 8 7 8 8 7 6 9 8 7 8 9 8 8 9 9 9 9 10 14 20 21 20 20 22 18 9 10 9 8 9 8 8 10 10 10 10 10 10 10 10 11 12 14 14 15 14 14 13 16 20 21 22 25 21 16 16 17 15 15 16 16 17 15 14 13 12 13 12 13 12 12 11
6 6 5 6 6 6 7 6 7 7 7 7 8 7 7 7 8 7 6 8 7 7 9 8 8 8 9 9 9 9 9 17 20 22 21 21 23 14 9 9 8 8 8 9 9 9 10 9 10 10 10 10 10 14 15 15 15 14 16 16 16 15 15 14 14 12 12 11 14 15 14 14 14 13 14 13 13 11 10 10 9 9 8 10 11
6 6 5 6 6 6 6 6 7 7 7 7 7 7 7 8 7 7 7 7 6 7 7 7 8 9 9 9 9 9 9 17 20 22 23 20 15 10 9 9 8 8 9 9 9 9 9 9 9 9 10 11 13 18 19 16 16 17 17 17 16 16 15 17 23 22 18 14 13 13 12 7 3 4 8 7 5 6 7 8 7 8 9 9 10
6 5 5 6 6 6 6 6 6 6 7 6 7 7 8 7 7 7 7 8 7 8 8 8 8 8 9 9 9 10 10 14 20 23 22 21 17 10 10 9 8 9 9 9 9 9 8 9 10 11 11 11 15 20 23 24 17 17 16 17 16 15 15 14 20 24 25 21 14 9 10 13 13 14 14 14 10 8 6 6 6 8 6 7 9
5 6 5 6 5 6 6 6 6 6 6 7 7 7 7 7 7 7 7 8 8 8 8 8 8 8 9 9 9 10 10 13 19 23 22 18 17 11 9 8 8 9 9 9 9 8 10 15 14 12 12 12 19 21 22 21 16 16 17 19 22 18 15 13 4 6 12 12 11 10 10 10 10 10 11 12 11 9 5 4 8 7 5 9 9
5 5 5 5 5 5 5 6 6 5 5 6 6 6 7 6 7 7 7 7 7 7 8 7 8 8 8 8 11 10 9 12 16 22 24 20 15 11 9 8 8 9 10 10 9 9 9 10 14 14 13 17 22 18 23 24 17 16 17 17 17 17 14 8 2 5 5 7 7 7 7 6 5 4 5 7 8 6 4 3 6 6 6 8 8
4 4 4 4 4 5 4 5 5 4 5 5 5 6 6 5 7 7 7 6 6 7 7 8 8 8 8 8 8 8 9 10 13 21 21 19 23 14 9 8 9 10 10 10 10 10 10 10 12 14 18 21 23 23 21 23 20 19 16 13 15 16 12 2 4 3 5 5 6 6 5 4 2 2 1 2 2 3 3 4 4 5 6 7 7
4 4 4 4 4 5 4 4 4 5 4 4 5 6 5 5 6 7 6 6 6 7 7 8 7 8 8 8 8 9 8 10 12 17 22 20 20 19 9 9 9 10 10 10 10 10 10 10 10 15 19 22 25 23 22 23 26 15 12 11 10 11 11 5 6 7 5 6 6 7 6 6 5 4 3 3 2 2 3 4 4 4 5 6 8
3 4 4 4 4 4 4 4 4 3 4 4 5 5 6 5 6 5 6 6 6 7 7 7 7 8 8 8 8 8 9 11 10 14 18 21 18 21 12 10 11 11 11 10 10 10 10 11 11 15 22 24 27 23 23 21 20 10 11 12 15 15 8 7 7 6 7 7 7 6 7 6 6 6 5 5 4 3 4 4 4 4 5 6 8
3 3 4 3 3 3 3 4 3 3 4 5 4 5 6 6 6 5 5 6 6 7 7 7 7 8 8 7 7 7 8 9 11 11 15 18 22 15 18 13 15 11 10 11 11 11 10 11 12 19 23 23 20 20 21 21 13 10 13 12 15 14 10 5 6 6 6 6 6 7 6 7 7 7 6 6 6 5 6 7 7 7 7 8 9
3 3 3 2 3 3 3 3 3 3 4 4 5 5 6 6 6 5 6 6 6 6 7 7 7 8 8 8 8 8 8 8 11 13 12 17 18 17 15 17 17 12 11 10 10 11 11 12 15 23 23 20 19 20 24 18 11 16 17 18 15 11 7 7 6 6 7 7 7 7 7 7 7 6 7 7 8 8 9 9 8 8 8 8 9
2 3 3 2 2 3 3 3 3 3 4 4 5 6 7 7 6 6 6 6 6 6 7 6 7 7 8 8 8 8 8 9 9 11 15 15 16 16 16 17 17 17 12 11 11 11 15 21 22 22 21 23 23 20 16 15 16 14 14 14 13 7 7 7 7 7 7 7 6 7 7 7 6 7 7 8 9 9 8 7 7 7 8 9 10
3 2 3 2 2 2 4 4 4 4 4 5 5 5 6 6 6 7 6 5 6 6 6 7 7 7 8 8 8 9 9 9 9 9 10 11 12 14 17 17 16 17 16 13 16 18 19 20 21 20 18 17 13 11 10 10 14 13 11 9 6 6 6 6 7 7 7 7 7 7 7 7 7 7 8 8 7 7 7 8 8 8 6 7 9
2 2 2 3 2 2 3 4 5 5 5 6 6 5 5 5 6 6 6 6 6 6 7 7 7 8 8 9 9 9 9 9 9 9 9 9 10 11 12 11 14 14 11 10 12 12 15 16 14 17 16 18 16 14 12 12 10 8 6 6 6 5 5 6 7 7 7 7 7 7 8 8 8 8 7 7 8 7 7 8 8 8 8 9 10
2 3 3 2 3 3 3 3 4 4 5 6 6 5 5 6 6 6 6 6 6 7 7 7 7 8 9 9 9 9 9 9 8 8 10 11 11 11 11 11 10 10 11 11 12 14 13 14 14 11 11 10 9 8 8 7 7 7 7 7 6 5 7 8 9 7 7 7 7 8 8 7 8 8 8 8 8 8 7 9 9 9 8 8 9
2 2 2 2 2 3 3 4 4 4 5 6 6 5 6 7 6 7 6 5 6 7 7 8 8 7 8 9 10 10 9 9 8 12 14 16 14 13 12 11 11 11 13 18 15 13 11 10 10 10 10 11 10 10 9 8 8 8 8 7 7 7 7 7 7 7 7 7 7 8 9 9 9 8 10 11 11 11 10 9 9 8 8 8 9
2 1 2 2 3 3 4 4 4 5 5 6 7 7 6 8 8 7 7 8 10 12 10 8 9 8 8 8 8 9 10 11 17 21 19 19 19 18 17 18 17 15 17 19 13 11 10 9 10 9 10 10 10 10 10 10 10 10 9 8 8 7 8 8 7 8 9 9 9 9 10 9 10 9 9 10 10 9 8 8 9 8 8 8 9
2 2 1 2 2 4 4 4 4 4 5 5 6 7 8 5 6 10 11 11 12 12 12 12 13 11 9 9 10 14 17 18 18 18 20 19 19 19 18 18 18 17 16 12 10 9 9 9 9 9 8 8 8 9 9 9 9 9 10 10 10 10 10 9 9 8 8 9 9 8 9 8 9 9 9 9 9 9 8 8 8 8 8 8 9
2 2 3 3 3 3 4 4 4 4 5 5 5 6 7 8 6 3 6 9 10 11 11 11 10 10 11 11 11 10 12 14 17 18 19 19 18 18 18 18 17 16 15 13 8 8 8 8 8 9 8 8 8 8 8 8 8 8 9 9 9 9 9 9 8 8 9 8 9 8 8 8 8 8 8 9 8 9 8 8 7 8 8 8 9
2 3 3 3 3 3 4 4 4 5 7 6 6 5 6 6 9 9 6 7 9 9 10 9 9 10 11 12 13 13 14 15 17 18 18 18 18 17 18 18 16 14 12 7 6 8 7 7 8 8 8 8 8 8 8 8 8 8 8 9 9 9 8 9 9 9 8 8 8 8 8 8 8 8 8 8 8 8 8 8 8 7 7 8 9
3 3 3 3 4 4 4 4 4 6 6 5 5 6 6 5 6 6 9 10 7 4 6 8 8 9 10 11 13 13 14 15 16 17 17 17 17 16 16 13 14 11 6 5 6 7 7 7 8 8 8 8 8 8 8 8 8 9 9 9 9 9 9 9 8 8 8 8 8 8 8 8 7 7 8 8 8 8 8 8 7 7 7 8 8
3 3 6 5 4 4 4 5 5 5 5 5 6 5 6 6 5 6 6 6 7 9 9 7 6 6 8 10 11 12 13 15 16 16 17 15 14 14 14 9 8 7 5 5 6 7 7 7 8 8 8 8 8 8 9 9 8 8 9 9 9 9 9 8 8 8 8 8 8 8 8 8 8 8 8 8 7 8 8 8 8 8 8 8 8
3 3 3 3 3 4 5 5 4 5 5 5 5 6 5 5 5 6 6 7 7 9 10 7 8 10 13 12 12 11 12 15 15 16 15 13 12 12 7 7 7 7 7 7 6 7 7 7 8 8 8 8 8 8 8 9 9 9 9 9 10 9 9 9 8 8 8 8 9 9 9 8 8 8 8 8 9 9 8 8 8 8 8 8 8
3 3 3 3 3 5 5 4 4 5 5 5 5 6 5 5 5 6 6 7 8 8 9 10 10 9 7 4 6 12 14 14 15 15 12 11 10 6 5 6 7 8 7 8 7 8 8 8 7 8 8 8 8 8 8 9 9 9 9 9 9 9 9 8 9 8 8 8 9 9 8 8 8 8 8 8 8 8 8 8 8 8 8 9 9
3 4 4 3 4 4 5 5 5 4 5 5 5 5 6 6 6 7 6 8 8 8 9 9 9 10 11 10 12 9 12 13 12 8 7 8 5 5 5 6 7 7 8 8 7 8 9 8 8 8 8 8 9 9 9 9 9 9 9 9 9 9 11 10 10 9 9 8 9 8 8 8 8 7 7 7 7 8 8 8 8 8 8 9 8
4 6 7 7 6 5 5 6 5 5 6 6 6 5 5 6 6 7 7 8 8 8 9 9 10 9 9 10 10 11 11 9 9 9 8 7 7 6 6 7 7 7 8 8 8 8 8 9 8 8 8 8 9 9 9 9 9 9 9 9 9 9 9 8 8 8 8 8 8 8 8 8 7 7 7 8 8 7 7 7 7 7 8 8 8
4 5 4 5 4 4 4 4 5 6 5 6 7 6 7 6 7 7 7 7 7 8 9 9 10 7 8 9 8 9 8 8 9 9 9 9 8 7 7 7 7 8 8 9 8 8 9 9 8 9 9 8 9 9 9 9 9 9 9 9 9 9 9 9 9 8 9 9 9 9 8 8 8 8 8 8 8 8 8 8 8 8 8 9 9
5 5 4 4 4 5 5 4 6 6 7 6 6 6 7 6 6 5 7 6 7 7 9 9 10 9 9 9 10 10 8 8 9 9 8 9 9 8 8 7 8 8 8 8 8 8 9 9 9 9 9 9 9 9 9 9 9 9 9 9 9 9 9 9 9 9 9 9 9 9 9 8 8 8 8 8 8 9 9 9 9 8 8 9 9
5 6 6 6 3 5 5 5 6 6 6 4 6 6 6 6 7 7 6 7 5 6 8 9 10 10 11 14 11 11 8 7 8 8 9 9 8 8 8 8 8 8 8 8 8 9 9 9 9 9 9 9 9 9 9 9 9 9 9 9 9 10 10 9 9 9 10 9 9 9 9 9 9 9 10 9 9 8 8 8 8 8 9 9 9
4 5 6 5 5 6 6 7 7 6 6 7 7 7 6 6 6 5 6 5 7 6 7 8 10 10 10 11 8 9 7 7 7 8 8 8 8 9 8 8 8 8 8 9 9 9 9 9 9 9 9 9 9 9 9 9 9 10 10 10 10 10 10 10 9 9 9 9 10 10 10 9 9 9 9 8 9 9 9 9 9 9 9 9 9
5 5 5 5 5 6 5 7 7 7 7 7 7 6 6 6 6 6 7 7 7 7 8 9 9 10 10 10 8 6 7 7 7 8 8 8 8 8 9 9 9 9 9 9 9 8 9 9 10 10 10 10 10 10 10 9 9 9 10 10 10 10 10 10 10 10 10 10 10 10 10 10 10 10 10 9 9 9 9 9 9 9 9 9 9
5 6 7 7 7 7 8 7 7 7 6 5 7 7 6 7 7 8 7 8 7 8 8 8 9 9 8 9 9 8 8 8 7 8 8 8 9 9 8 9 9 9 9 9 9 9 9 9 10 10 10 10 9 10 9 9 9 9 9 10 10 10 10 10 10 10 10 11 11 11 11 10 10 10 10 9 9 10 10 10 9 9 10 10 9
7 7 6 8 7 7 7 8 6 7 6 7 7 7 8 7 7 7 7 8 8 8 9 8 9 9 8 9 9 7 8 8 8 8 7 8 8 9 8 9 9 9 9 9 9 9 9 9 9 9 10 10 10 10 10 10 10 9 10 10 10 10 10 10 10 10 10 11 11 11 11 11 11 10 11 10 10 10 10 11 10 10 10 10 10
6 7 8 7 8 7 6 5 7 7 6 7 7 7 8 8 8 8 7 7 7 6 7 9 8 9 9 9 8 9 8 8 8 8 9 9 9 9 9 8 9 9 9 9 9 9 9 9 9 10 10 10 10 11 10 9 9 9 9 9 9 10 9 9 11 12 12 12 12 11 11 11 11 11 11 10 9 9 10 10 10 11 10 10 10
6 7 8 7 7 7 7 7 7 7 6 6 8 7 8 8 9 8 8 9 8 7 8 8 8 9 8 9 9 9 8 8 8 8 9 9 8 8 8 9 9 9 9 9 9 9 9 9 9 10 10 10 10 10 10 10 9 9 9 9 9 9 12 15 13 13 11 11 12 12 12 12 11 11 10 10 10 9 10 10 9 9 9 9 9
6 7 8 8 7 8 8 8 6 8 8 8 8 7 7 8 9 9 9 9 9 9 8 8 8 9 8 9 9 9 9 8 9 9 8 8 9 8 8 8 8 9 9 9 9 9 9 9 9 9 10 10 9 10 10 10 10 10 10 10 11 16 18 20 16 13 16 13 11 11 11 11 11 11 11 11 10 10 10 10 10 10 10 10 9
7 6 6 6 6 7 7 7 8 8 7 7 7 7 7 6 7 8 9 9 9 9 8 9 8 8 8 9 8 9 9 9 9 9 9 9 9 9 9 9 8 9 9 9 9 10 9 9 10 9 9 9 10 10 10 10 10 10 10 10 16 21 21 21 20 19 14 11 12 11 11 11 11 10 10 10 10 10 10 10 10 9 9 10 10
5 6 6 6 7 7 7 7 7 7 7 7 7 7 7 7 8 9 9 8 7 9 9 8 8 8 8 9 8 8 9 9 9 9 9 9 9 9 9 9 8 8 9 9 9 9 9 9 9 9 9 9 10 10 9 9 9 10 13 19 21 21 21 18 14 17 20 16 11 10 10 10 10 10 10 9 9 9 10 10 10 10 9 9 9
Wind_Direction
66 64 63 61 60 57 55 53 49 50 47 43 40 38 35 32 25 11 13 10 8 360 7 0 359 358 359 358 357 354 358 354 350 350 346 341 339 334 332 331 329 324 320 321 316 316 313 310 308 304 303 302 299 301 301 299 301 300 298 294 288 283 278 276 279 286 291 292 291 296 303 302 293 289 286 285 287 291 293 292 287 282 280 278 279
66 66 65 62 58 56 55 53 50 46 48 44 38 35 29 27 21 9 12 8 5 1 3 357 355 354 0 354 353 356 352 352 348 349 341 338 336 333 332 328 326 321 320 318 316 315 311 309 304 303 300 297 297 296 294 301 301 297 295 292 287 284 286 289 285 287 291 301 297 295 299 300 289 291 291 295 294 291 290 294 293 289 287 279 274
68 68 66 63 60 57 53 51 47 46 45 40 33 28 23 20 19 9 8 5 360 3 360 353 355 355 360 351 353 355 351 350 348 344 337 335 333 331 328 329 325 322 319 315 314 312 311 306 307 305 306 301 298 294 296 298 296 295 290 289 288 287 288 284 283 283 290 293 300 301 299 305 305 304 301 295 291 292 289 283 282 283 282 282 280
71 71 68 65 62 56 53 49 46 43 39 36 27 25 18 17 14 8 7 3 358 2 357 352 358 356 357 350 352 353 347 347 345 337 334 331 330 325 324 324 321 316 311 308 305 305 302 303 304 305 306 302 298 297 295 297 299 299 296 290 283 285 287 295 300 298 299 298 298 300 304 301 299 301 304 299 293 286 281 278 278 277 276 276 277
68 66 65 63 59 53 48 45 41 38 36 26 23 18 15 14 9 5 5 1 359 358 355 352 359 354 353 347 350 347 345 343 339 332 329 328 324 322 320 315 310 306 302 301 300 298 295 296 299 300 298 298 299 294 296 302 300 292 286 288 291 294 294 294 295 296 295 292 296 296 297 293 294 293 294 296 296 293 289 286 282 279 278 275 276
68 62 56 53 52 45 40 37 32 31 28 21 18 14 12 10 6 4 2 1 355 357 354 355 351 352 346 348 346 342 342 339 333 328 327 324 321 316 310 302 296 292 292 293 296 297 299 298 298 302 311 311 307 309 306 304 309 316 307 295 293 293 292 292 292 291 289 288 292 296 292 292 292 288 290 292 294 294 296 297 291 283 278 272 266
67 59 54 54 48 41 37 33 31 27 24 18 15 11 11 6 5 2 360 359 357 353 355 358 344 357 344 350 345 343 341 335 330 326 324 319 313 304 297 294 287 287 291 301 307 314 323 350 357 353 348 335 329 325 318 316 308 300 298 296 292 290 290 291 290 288 286 286 287 286 290 289 289 292 293 290 290 289 289 289 282 276 270 266 266
65 58 56 48 44 38 32 31 29 26 22 15 14 11 8 4 4 0 360 358 360 354 358 353 347 354 350 350 347 342 338 331 324 323 319 312 300 288 282 293 307 311 315 318 318 319 347 339 334 335 331 323 316 313 311 308 306 302 298 296 296 293 289 287 285 283 282 283 283 288 289 292 292 288 289 288 282 280 277 279 287 289 282 280 275
59 59 50 44 35 31 30 26 28 20 18 14 13 10 5 3 2 1 359 1 358 355 356 350 351 353 351 347 342 338 332 326 323 321 313 299 290 301 314 311 330 357 349 338 329 331 333 327 325 325 321 318 317 315 311 306 302 297 295 294 293 290 287 285 282 280 279 279 281 283 285 285 285 289 290 285 283 285 287 287 282 279 282 276 272
56 49 48 38 29 29 30 25 23 14 17 10 12 7 3 3 2 360 1 359 357 355 354 351 359 350 345 339 342 333 330 322 317 310 307 312 316 315 316 3 9 350 345 331 324 321 316 313 317 320 318 317 316 316 315 313 308 303 299 296 292 288 285 283 281 281 280 280 279 284 283 282 283 286 287 288 290 288 285 282 277 279 278 276 273
52 47 42 36 29 30 28 20 18 13 14 6 9 5 3 3 359 0 360 359 356 356 351 355 352 344 343 341 337 332 329 326 315 316 322 323 328 331 18 10 353 341 328 332 323 317 318 321 318 313 311 309 308 310 309 311 313 310 306 299 293 288 285 283 280 281 281 279 282 281 280 282 285 287 285 289 289 290 287 287 287 288 282 280 276
50 42 42 35 28 30 22 15 15 10 11 6 7 3 3 0 360 359 357 357 355 353 348 351 345 341 342 337 334 328 330 317 317 319 324 331 329 346 27 2 343 333 332 327 322 320 318 313 310 307 304 305 306 306 307 308 307 306 304 301 297 292 285 280 281 279 278 278 279 279 283 285 288 291 293 293 292 290 288 287 288 286 284 282 277
44 41 38 37 25 29 17 16 10 9 8 7 3 1 4 358 359 354 357 351 348 345 345 346 340 341 337 333 328 326 325 314 317 321 329 330 326 347 30 3 342 334 330 320 318 319 313 311 309 307 305 307 309 308 307 307 309 307 302 298 293 291 290 286 280 277 278 279 280 280 281 287 287 285 283 282 281 280 280 276 272 269 270 273 275
47 38 38 35 24 19 15 12 11 6 8 5 3 2 4 358 357 348 355 347 344 340 341 342 338 337 332 329 325 324 320 312 318 325 329 330 340 350 5 354 333 328 324 324 322 315 311 308 309 309 308 308 304 312 316 314 308 304 300 295 289 285 285 283 281 280 276 274 275 274 278 279 278 281 284 286 282 275 275 275 276 276 275 275 285
43 37 32 31 19 16 14 11 10 5 7 6 4 359 4 353 354 346 355 342 344 342 341 338 333 331 328 328 326 322 319 317 325 327 326 339 346 355 347 337 329 329 328 321 312 307 303 303 306 306 314 321 323 318 314 306 301 302 303 303 298 294 290 285 276 268 264 257 263 265 263 261 272 286 288 274 269 274 277 285 295 296 300 295 289
44 33 27 24 17 12 13 11 7 8 6 5 0 358 359 349 350 342 350 337 340 340 333 332 327 329 326 328 325 324 322 326 328 324 327 332 353 354 346 333 334 327 320 315 310 307 306 308 309 320 323 318 312 310 306 301 305 307 304 298 295 293 290 288 286 281 272 264 261 261 261 270 296 344 11 28 16 344 318 287 275 277 272 271 273
40 27 18 22 13 12 12 12 7 7 8 2 0 355 353 342 346 340 347 333 341 335 334 332 328 328 327 327 328 325 328 328 328 323 323 338 354 350 341 332 330 325 318 316 314 312 312 313 322 320 314 311 308 309 304 307 310 308 303 301 296 293 292 288 291 295 296 297 299 323 5 14 10 6 7 20 29 1 344 331 319 309 4 313 292
35 20 17 18 10 14 11 14 7 8 6 360 356 351 345 341 341 343 341 334 336 333 333 330 327 327 325 325 326 327 323 327 326 320 322 337 350 355 338 334 328 326 319 320 316 318 319 321 317 315 311 311 314 311 306 311 311 310 310 310 308 303 298 291 296 298 297 322 329 350 358 12 16 16 16 17 24 25 21 351 310 337 321 298 303
24 18 15 13 14 9 17 14 9 7 0 352 349 340 338 343 336 340 339 333 332 332 332 327 324 323 323 320 318 323 321 320 324 319 326 325 347 359 342 334 333 325 324 320 321 320 318 315 314 312 316 315 314 307 308 310 312 313 312 304 297 292 288 288 290 297 332 341 333 349 349 3 11 10 15 22 23 37 44 348 322 332 310 308 309
18 16 18 15 12 16 15 21 360 4 349 341 337 335 331 340 341 342 337 335 335 332 329 324 317 313 318 320 319 320 320 321 323 324 326 330 345 356 344 344 331 325 323 325 322 320 317 314 313 317 317 316 314 311 307 309 315 314 309 301 300 298 292 42 326 4 329 325 308 309 292 286 294 275 317 27 22 26 29 352 337 322 307 297 298
16 19 17 18 17 16 16 15 358 341 344 332 331 332 335 341 335 335 327 332 330 322 318 315 314 312 317 317 315 316 317 318 319 326 326 329 336 349 348 341 328 326 326 324 321 319 317 316 317 317 318 317 314 309 312 313 316 313 306 304 319 3 12 1 347 337 316 308 310 311 317 320 324 319 333 337 341 5 358 336 311 308 305 297 295
18 18 15 19 16 9 9 352 346 337 330 336 331 331 336 334 329 326 335 330 314 310 311 313 315 312 314 314 310 312 316 314 316 320 326 325 324 341 347 335 328 329 326 323 319 316 314 317 316 317 317 317 316 315 314 315 320 317 308 332 353 359 353 336 328 329 319 319 319 319 317 322 321 331 334 334 330 337 329 308 298 292 286 280 279
20 15 20 11 357 346 346 347 330 327 328 331 328 322 330 336 319 313 310 311 304 304 307 312 314 312 315 316 316 314 314 315 317 318 321 324 324 326 335 334 332 334 324 319 315 313 313 311 312 314 316 319 318 319 319 328 325 314 326 358 358 351 345 345 335 328 327 321 321 316 321 322 325 327 331 330 330 331 316 305 290 277 272 267 263
21 11 9 353 347 340 337 321 324 326 335 327 328 317 325 323 325 329 323 317 321 321 325 322 318 317 318 319 319 320 317 316 319 320 321 324 320 320 328 332 330 327 321 312 312 310 310 312 312 315 320 321 321 326 333 337 338 343 354 357 353 347 348 344 345 337 326 322 319 323 321 320 318 318 323 323 317 312 301 288 277 265 255 264 263
354 1 354 339 340 340 327 318 316 328 324 329 322 335 331 330 325 331 328 317 318 317 319 321 316 316 315 314 316 317 319 315 314 317 321 317 315 315 319 323 323 321 317 311 307 307 307 310 313 316 319 318 320 323 331 339 345 348 349 352 347 349 349 342 335 328 323 317 317 311 308 306 310 305 302 301 294 285 276 278 271 270 264 259 261
4 350 346 330 339 325 320 317 327 320 322 332 323 327 323 324 326 330 324 319 318 316 316 318 314 313 312 313 314 314 313 314 315 319 319 320 318 322 322 320 319 319 314 307 308 309 311 314 313 314 315 315 317 317 320 320 328 330 332 342 336 342 344 338 328 325 315 314 309 306 303 306 301 297 291 278 279 288 299 298 303 296 294 293 297
344 350 348 333 311 319 304 351 336 335 337 339 336 327 327 322 320 316 321 319 320 316 314 315 314 315 315 315 314 313 315 316 318 321 327 325 324 323 323 321 320 318 317 316 317 317 315 314 311 310 308 308 308 308 309 313 316 322 328 331 325 321 329 324 317 306 304 302 303 300 299 295 294 289 288 296 294 293 295 298 300 297 303 302 296
352 344 329 313 329 337 319 313 315 330 331 333 331 330 329 327 316 312 316 320 315 315 316 314 315 316 316 316 315 314 314 316 318 326 325 324 321 320 320 319 319 319 316 317 317 317 312 308 308 313 316 316 316 314 314 313 311 313 317 317 311 307 301 294 294 288 289 296 295 295 293 298 298 299 299 296 295 296 300 299 298 298 299 298 293
315 302 295 321 320 329 313 328 329 322 317 328 323 315 315 322 318 304 297 286 300 307 312 303 303 307 309 310 314 312 310 310 313 317 312 312 314 316 318 317 316 312 312 315 317 313 308 306 309 317 322 322 320 319 317 316 316 314 309 306 310 307 305 310 305 302 302 304 302 304 304 303 300 300 300 299 298 300 302 299 293 291 294 288 282
299 325 349 324 341 325 328 325 329 328 324 327 322 317 298 276 267 284 304 300 296 294 291 291 296 304 303 300 301 301 302 300 304 307 309 312 313 314 312 308 307 308 312 320 318 305 303 304 309 313 315 317 317 316 317 317 314 315 314 315 311 309 310 308 304 305 309 307 304 303 300 300 297 298 297 295 294 295 294 289 288 286 286 285 286
323 335 333 347 342 317 314 315 324 317 325 314 319 318 321 314 287 268 270 287 294 294 294 292 295 295 299 302 300 294 291 295 300 306 310 313 316 315 311 309 311 314 322 326 313 302 300 302 306 310 307 308 305 307 309 310 309 309 309 310 308 308 307 306 308 309 307 302 297 292 291 290 290 293 292 292 292 293 294 287 282 283 279 283 285
332 337 334 321 302 288 308 301 301 303 315 323 314 315 318 324 320 267 265 295 287 288 290 291 292 296 299 300 302 302 301 302 306 309 313 315 315 312 310 313 315 318 322 315 293 297 302 300 303 306 306 303 302 303 302 301 302 300 303 304 304 305 302 299 306 307 297 293 289 289 287 286 287 289 288 289 290 289 287 288 286 286 285 284 282
273 293 287 288 288 274 284 303 307 313 321 319 316 317 318 321 323 326 310 290 285 282 277 278 292 298 301 302 303 300 301 305 308 312 315 313 311 312 316 315 313 314 314 304 297 302 305 300 298 300 301 299 302 301 298 296 296 298 295 296 296 299 296 294 295 285 279 276 282 282 282 283 284 285 283 282 282 283 287 284 284 281 282 283 283
238 260 293 297 287 302 306 304 313 317 317 308 305 312 309 309 308 305 314 326 324 284 257 263 273 288 301 302 302 303 305 309 312 313 311 311 314 320 321 312 306 308 292 285 302 300 301 300 297 298 298 297 297 298 297 297 297 294 294 290 291 293 294 294 289 286 290 289 285 282 282 281 282 284 285 284 280 279 280 280 282 283 282 282 287
240 240 239 260 289 292 298 307 307 305 305 304 308 305 306 307 305 300 306 311 312 315 320 309 288 255 306 308 301 298 304 308 310 310 308 311 318 322 317 311 323 329 320 301 291 292 296 297 298 298 298 298 298 297 296 296 295 295 296 296 295 296 296 296 292 292 290 291 286 283 283 284 283 278 278 281 285 284 283 284 282 278 279 282 284
241 273 274 226 254 285 298 297 297 297 295 301 299 295 298 300 303 304 300 292 295 305 310 301 301 304 297 287 283 293 306 309 305 304 304 308 316 323 315 319 316 315 313 309 302 297 292 290 293 295 296 294 294 293 292 294 292 293 294 295 294 293 294 292 293 293 291 288 284 282 283 281 281 282 282 279 272 269 270 272 275 277 274 273 277
271 276 279 288 292 300 291 286 278 285 290 285 290 294 297 295 297 299 301 302 304 304 305 310 314 308 299 279 312 317 309 308 304 299 301 303 305 303 299 302 303 305 303 306 304 303 299 296 291 291 291 292 292 292 291 291 290 287 283 280 283 282 283 286 287 288 285 285 284 284 280 278 279 276 274 276 277 276 274 273 273 272 271 270 277
255 274 286 288 286 272 275 287 294 277 276 285 290 294 297 300 299 298 296 302 298 295 304 311 312 316 325 328 334 328 318 309 311 316 325 327 323 317 307 299 295 294 299 301 299 298 296 295 293 290 291 290 289 290 290 289 288 287 288 288 286 280 275 275 274 268 264 268 273 274 276 276 275 273 269 266 271 276 277 276 278 282 282 277 269
242 227 242 265 270 278 291 292 294 295 299 298 301 297 293 295 296 300 302 304 300 303 307 310 315 316 318 323 325 325 322 326 331 327 327 326 322 313 307 303 299 297 296 296 297 295 295 296 295 291 287 289 291 289 289 289 289 287 286 285 285 287 286 284 284 285 283 282 282 281 279 278 278 274 269 269 268 267 269 270 267 267 271 275 272
273 283 252 236 263 258 265 273 282 285 292 297 299 300 296 294 296 295 295 294 292 298 303 306 308 297 309 318 320 327 321 314 314 314 315 315 314 313 305 303 302 300 300 299 297 296 296 295 296 295 294 292 290 290 288 286 286 285 285 282 286 288 285 284 284 285 285 285 284 283 280 277 277 275 269 265 266 266 266 266 267 265 266 268 274
279 277 274 250 253 281 272 273 280 286 294 291 291 291 287 284 284 284 285 283 287 290 295 297 300 300 304 304 304 310 305 300 303 304 305 306 306 304 305 302 299 296 296 296 296 297 295 295 295 295 293 293 293 294 292 290 288 288 287 287 283 283 286 285 282 279 279 279 279 280 279 278 275 275 275 274 271 270 267 265 264 264 264 264 269
265 276 276 284 262 263 275 276 284 284 275 268 271 278 285 287 287 286 284 284 282 285 289 292 301 304 306 301 296 304 299 287 291 294 297 297 296 297 297 295 292 291 292 295 297 296 295 293 292 292 292 292 294 295 295 292 291 290 290 290 288 287 288 290 290 286 283 282 280 276 276 276 275 271 269 269 271 269 270 269 270 272 273 273 272
248 262 269 273 271 274 277 284 286 285 285 284 286 282 276 276 276 278 279 275 279 282 284 287 298 304 303 302 292 285 284 282 284 286 289 293 295 295 294 295 296 293 291 289 289 290 290 291 293 293 292 292 290 290 292 293 293 292 291 288 287 287 287 289 290 289 287 286 284 281 275 273 273 273 272 271 268 269 269 270 269 269 271 272 275
254 260 262 260 264 269 266 273 276 278 280 281 281 276 273 274 274 272 275 278 278 282 284 289 297 300 303 308 305 300 300 294 293 293 292 292 291 293 295 298 298 294 293 291 290 290 291 292 292 292 290 289 290 287 286 285 286 286 289 289 289 289 289 288 288 291 293 294 291 289 285 281 276 276 277 274 272 270 271 271 270 272 273 277 278
247 258 264 269 269 273 275 273 271 275 276 274 272 278 275 272 275 278 279 281 281 284 286 287 293 293 298 303 303 298 296 295 292 291 291 292 292 292 295 295 295 294 295 294 293 291 291 292 292 294 293 293 293 293 290 290 287 283 282 285 288 291 293 291 290 289 288 286 288 287 286 283 282 280 279 280 279 278 276 275 273 273 274 274 276
258 263 263 266 269 270 273 275 274 274 272 273 278 281 285 282 277 277 280 280 280 283 288 289 293 291 290 294 300 294 292 295 293 290 290 291 293 296 296 295 294 293 294 293 294 293 291 292 293 292 294 295 296 295 294 291 290 287 285 281 281 282 285 290 290 289 284 283 283 284 285 284 281 278 274 273 277 274 275 276 275 272 271 275 273
252 258 262 264 266 269 268 268 272 271 273 273 274 274 279 282 283 282 276 270 275 276 276 283 286 289 294 293 291 290 291 290 291 293 289 286 285 286 289 292 295 295 293 293 292 292 293 292 293 293 292 293 294 293 293 294 296 295 294 292 292 293 296 303 306 303 299 296 294 292 289 288 285 285 280 274 273 273 272 272 271 272 271 270 273
250 258 260 262 263 265 268 267 268 265 261 263 267 272 277 281 283 282 284 287 281 278 281 282 280 287 291 291 292 291 291 289 289 286 288 288 289 289 289 289 291 296 297 294 292 291 292 294 293 293 293 293 293 294 294 295 294 293 294 294 294 294 296 296 299 302 301 300 296 291 289 286 286 284 284 281 279 280 280 280 279 278 277 278 276
253 255 259 260 261 262 268 269 268 272 272 274 275 272 272 276 277 280 282 281 281 281 279 281 284 288 287 288 292 293 291 287 287 289 289 290 290 288 289 288 288 290 293 293 294 294 293 292 289 290 292 292 291 294 294 293 293 294 295 296 297 300 304 308 308 304 304 300 295 292 288 284 283 282 282 280 279 277 276 277 279 280 280 277 276
250 248 252 257 254 259 263 264 265 268 269 268 267 269 267 266 265 273 278 278 279 278 281 282 278 280 281 285 285 287 288 289 289 289 290 290 290 290 291 291 289 289 290 292 294 294 293 291 291 289 290 291 291 290 291 290 292 294 295 298 302 306 308 309 309 308 309 307 301 294 289 284 281 279 280 281 280 277 275 273 274 274 276 277 276
246 249 251 251 255 261 262 262 263 261 261 264 263 266 267 267 273 275 277 274 271 280 280 280 279 280 278 278 278 282 284 283 284 285 285 286 287 288 291 291 289 290 291 289 290 292 292 294 292 292 292 291 291 290 291 291 292 293 296 299 304 306 308 309 312 314 314 311 303 294 285 283 279 281 279 280 279 278 275 277 275 273 272 273 273